| time (UTC) | temp F | wind direction | speed MPH | gust MPH | rain 1hr in | rain 24hr in | rain mn in | humidity % | barometer mb |
| 20260504151051 | 48 | 293 | 5.0 | 12.0 | 0.01 | 0.01 | 0.01 | 81 | 1007.1 |
| 20260504150611 | 49 | 293 | 6.0 | 10.0 | 0.00 | 0.00 | 0.00 | 79 | 1007.2 |
| 20260504150135 | 49 | 270 | 5.0 | 8.0 | 0.00 | 0.00 | 0.00 | 79 | 1006.9 |
| 20260504141208 | 49 | 225 | 5.0 | 11.0 | 0.00 | 0.00 | 0.00 | 76 | 1006.4 |
| 20260504140510 | 49 | 203 | 4.0 | 10.0 | 0.00 | 0.00 | 0.00 | 79 | 1006.4 |
| 20260504130633 | 45 | 203 | 4.0 | 9.0 | 0.00 | 0.00 | 0.00 | 85 | 1007.1 |
| 20260504130151 | 44 | 203 | 3.0 | 9.0 | 0.00 | 0.00 | 0.00 | 87 | 1007.3 |
| 20260504110716 | 38 | 248 | 1.0 | 3.0 | 0.00 | 0.01 | 0.00 | 88 | 1008.2 |
| 20260504110216 | 38 | 0.0 | 2.0 | 0.00 | 0.01 | 0.00 | 87 | 1008.3 | |
| 20260504100600 | 39 | 225 | 2.0 | 4.0 | 0.00 | 0.01 | 0.00 | 83 | 1008.3 |
| 20260504100116 | 38 | 248 | 3.0 | 7.0 | 0.00 | 0.01 | 0.00 | 83 | 1008.3 |
| 20260504081532 | 33 | 158 | 1.0 | 4.0 | 0.00 | 0.03 | 0.00 | 90 | 1008.0 |
| 20260504081044 | 33 | 180 | 1.0 | 3.0 | 0.00 | 0.03 | 0.00 | 92 | 1008.0 |
| 20260504080605 | 32 | 180 | 1.0 | 2.0 | 0.00 | 0.03 | 0.00 | 92 | 1008.0 |
| 20260504080129 | 31 | 203 | 1.0 | 3.0 | 0.00 | 0.03 | 0.00 | 94 | 1008.0 |
| 20260504070245 | 29 | 0.0 | 0.0 | 0.00 | 0.04 | 0.00 | 96 | 1007.9 | |
| 20260504060138 | 28 | 0.0 | 0.0 | 0.00 | 0.05 | 0.00 | 95 | 1007.8 | |
| 20260504050732 | 28 | 0.0 | 0.0 | 0.00 | 0.06 | 0.00 | 95 | 1007.9 | |
| 20260504050010 | 28 | 0.0 | 0.0 | 0.00 | 0.06 | 0.00 | 95 | 1008.0 | |
| 20260504045551 | 28 | 0.0 | 0.0 | 0.00 | 0.06 | 0.00 | 94 | 1007.8 | |
| 20260504045049 | 28 | 0.0 | 0.0 | 0.00 | 0.06 | 0.00 | 94 | 1007.9 | |
| 20260504044609 | 28 | 0.0 | 0.0 | 0.00 | 0.07 | 0.00 | 94 | 1007.9 | |
| 20260504044127 | 28 | 0.0 | 0.0 | 0.00 | 0.07 | 0.00 | 94 | 1007.9 | |
| 20260504043645 | 28 | 0.0 | 0.0 | 0.00 | 0.07 | 0.00 | 94 | 1008.0 | |
| 20260504043200 | 28 | 0.0 | 0.0 | 0.00 | 0.07 | 0.00 | 94 | 1008.1 | |
| 20260504042507 | 28 | 0.0 | 0.0 | 0.00 | 0.08 | 0.00 | 95 | 1008.1 | |
| 20260504042020 | 28 | 0.0 | 0.0 | 0.00 | 0.08 | 0.00 | 94 | 1007.9 | |
| 20260504041541 | 28 | 0.0 | 0.0 | 0.00 | 0.08 | 0.00 | 94 | 1008.0 | |
| 20260504041104 | 29 | 0.0 | 0.0 | 0.00 | 0.09 | 0.00 | 94 | 1008.0 | |
| 20260504040624 | 29 | 0.0 | 0.0 | 0.00 | 0.09 | 0.00 | 94 | 1008.0 | |
| 20260504040138 | 29 | 0.0 | 0.0 | 0.00 | 0.09 | 0.00 | 94 | 1008.0 | |
| 20260504035540 | 29 | 0.0 | 0.0 | 0.00 | 0.10 | 0.10 | 94 | 1007.8 | |
| 20260504034534 | 29 | 0.0 | 0.0 | 0.00 | 0.10 | 0.10 | 94 | 1008.0 | |
| 20260504034052 | 29 | 0.0 | 0.0 | 0.00 | 0.11 | 0.10 | 93 | 1007.9 | |
| 20260504033552 | 29 | 0.0 | 0.0 | 0.00 | 0.11 | 0.10 | 93 | 1008.0 | |
| 20260504033107 | 29 | 0.0 | 1.0 | 0.00 | 0.11 | 0.10 | 93 | 1008.0 | |
| 20260504032630 | 29 | 135 | 1.0 | 1.0 | 0.00 | 0.11 | 0.10 | 93 | 1008.0 |
| 20260504032142 | 29 | 0.0 | 1.0 | 0.00 | 0.11 | 0.10 | 93 | 1008.2 | |
| 20260504031703 | 29 | 0.0 | 1.0 | 0.00 | 0.11 | 0.10 | 93 | 1008.1 | |
| 20260504031223 | 29 | 135 | 1.0 | 2.0 | 0.00 | 0.12 | 0.10 | 93 | 1008.1 |
| 20260504030527 | 29 | 135 | 1.0 | 2.0 | 0.00 | 0.12 | 0.10 | 92 | 1008.1 |
| 20260504030034 | 29 | 135 | 1.0 | 1.0 | 0.00 | 0.12 | 0.10 | 92 | 1008.0 |
| 20260504025556 | 29 | 0.0 | 1.0 | 0.00 | 0.13 | 0.10 | 92 | 1008.0 | |
| 20260504025111 | 29 | 135 | 1.0 | 2.0 | 0.00 | 0.13 | 0.10 | 92 | 1007.9 |
| 20260504024636 | 30 | 135 | 1.0 | 2.0 | 0.00 | 0.14 | 0.10 | 91 | 1008.0 |
| 20260504024151 | 30 | 135 | 1.0 | 2.0 | 0.00 | 0.14 | 0.10 | 91 | 1008.0 |
| 20260504023709 | 30 | 0.0 | 1.0 | 0.00 | 0.14 | 0.10 | 90 | 1008.1 | |
| 20260504023004 | 30 | 0.0 | 1.0 | 0.00 | 0.14 | 0.10 | 90 | 1008.0 | |
| 20260504022526 | 30 | 0.0 | 1.0 | 0.00 | 0.14 | 0.10 | 90 | 1007.9 | |
| 20260504022017 | 31 | 135 | 1.0 | 2.0 | 0.00 | 0.14 | 0.09 | 90 | 1008.0 |
| 20260504021557 | 31 | 0.0 | 1.0 | 0.00 | 0.14 | 0.10 | 89 | 1008.1 | |
| 20260504021123 | 31 | 0.0 | 2.0 | 0.00 | 0.14 | 0.10 | 89 | 1008.1 | |
| 20260504020704 | 32 | 0.0 | 2.0 | 0.00 | 0.14 | 0.10 | 89 | 1008.0 | |
| 20260504020201 | 32 | 0.0 | 1.0 | 0.00 | 0.14 | 0.10 | 89 | 1007.9 | |
| 20260504015721 | 32 | 0.0 | 1.0 | 0.00 | 0.14 | 0.10 | 89 | 1008.0 | |
| 20260504015017 | 32 | 0.0 | 2.0 | 0.00 | 0.14 | 0.10 | 88 | 1008.1 | |
| 20260504014551 | 33 | 0.0 | 2.0 | 0.00 | 0.14 | 0.10 | 88 | 1008.2 | |
| 20260504014047 | 33 | 0.0 | 2.0 | 0.00 | 0.14 | 0.10 | 88 | 1007.9 | |
| 20260504013608 | 33 | 135 | 1.0 | 2.0 | 0.00 | 0.14 | 0.10 | 87 | 1008.1 |
| 20260504013150 | 34 | 0.0 | 1.0 | 0.00 | 0.14 | 0.10 | 87 | 1008.0 | |
| 20260504012650 | 34 | 0.0 | 0.0 | 0.00 | 0.14 | 0.10 | 87 | 1008.0 | |
| 20260504012223 | 34 | 0.0 | 1.0 | 0.00 | 0.14 | 0.10 | 86 | 1008.0 | |
| 20260504011726 | 35 | 0.0 | 2.0 | 0.00 | 0.14 | 0.10 | 86 | 1008.0 | |
| 20260504011023 | 35 | 0.0 | 2.0 | 0.00 | 0.14 | 0.10 | 85 | 1007.9 | |
| 20260504010543 | 35 | 135 | 1.0 | 2.0 | 0.00 | 0.14 | 0.10 | 84 | 1007.9 |
| 20260504010106 | 36 | 0.0 | 1.0 | 0.00 | 0.14 | 0.10 | 83 | 1007.8 | |
| 20260504005613 | 36 | 135 | 1.0 | 2.0 | 0.00 | 0.14 | 0.10 | 82 | 1007.8 |
| 20260504005140 | 37 | 135 | 1.0 | 3.0 | 0.00 | 0.14 | 0.10 | 81 | 1007.9 |
| 20260504004656 | 38 | 135 | 1.0 | 3.0 | 0.00 | 0.14 | 0.10 | 79 | 1007.8 |
| 20260504004212 | 38 | 0.0 | 1.0 | 0.00 | 0.15 | 0.10 | 80 | 1007.7 | |
| 20260504003515 | 39 | 0.0 | 1.0 | 0.00 | 0.15 | 0.10 | 78 | 1007.7 | |
| 20260504003021 | 39 | 0.0 | 1.0 | 0.00 | 0.15 | 0.09 | 77 | 1007.7 | |
| 20260504002515 | 40 | 0.0 | 2.0 | 0.00 | 0.15 | 0.10 | 75 | 1007.9 | |
| 20260504002028 | 40 | 0.0 | 1.0 | 0.00 | 0.15 | 0.10 | 75 | 1007.8 | |
| 20260504001550 | 41 | 248 | 1.0 | 2.0 | 0.00 | 0.16 | 0.10 | 73 | 1007.8 |
| 20260504001105 | 42 | 248 | 1.0 | 3.0 | 0.00 | 0.17 | 0.10 | 70 | 1007.8 |
| 20260504000630 | 42 | 270 | 1.0 | 2.0 | 0.00 | 0.17 | 0.10 | 68 | 1007.8 |
| 20260504000147 | 43 | 315 | 1.0 | 2.0 | 0.00 | 0.18 | 0.10 | 67 | 1007.8 |
| 20260503235703 | 43 | 315 | 2.0 | 4.0 | 0.00 | 0.18 | 0.10 | 62 | 1007.8 |
| 20260503235224 | 43 | 293 | 2.0 | 4.0 | 0.00 | 0.18 | 0.10 | 62 | 1007.8 |
| 20260503234526 | 43 | 293 | 3.0 | 6.0 | 0.00 | 0.18 | 0.10 | 63 | 1007.8 |
| 20260503234037 | 43 | 270 | 2.0 | 4.0 | 0.00 | 0.18 | 0.10 | 62 | 1007.8 |
| 20260503233603 | 43 | 293 | 2.0 | 4.0 | 0.00 | 0.18 | 0.10 | 63 | 1007.7 |
| 20260503233112 | 43 | 293 | 3.0 | 4.0 | 0.00 | 0.18 | 0.10 | 63 | 1007.6 |
| 20260503232632 | 43 | 270 | 3.0 | 5.0 | 0.00 | 0.18 | 0.10 | 61 | 1007.7 |
| 20260503232155 | 43 | 315 | 3.0 | 6.0 | 0.00 | 0.18 | 0.10 | 61 | 1007.7 |
| 20260503231734 | 43 | 315 | 2.0 | 5.0 | 0.00 | 0.18 | 0.10 | 62 | 1007.7 |
| 20260503231007 | 43 | 315 | 3.0 | 5.0 | 0.00 | 0.18 | 0.10 | 63 | 1007.5 |
| 20260503230523 | 43 | 315 | 4.0 | 9.0 | 0.00 | 0.18 | 0.10 | 62 | 1007.5 |
| 20260503230044 | 43 | 338 | 6.0 | 12.0 | 0.00 | 0.18 | 0.10 | 64 | 1007.7 |
| 20260503225603 | 43 | 293 | 5.0 | 8.0 | 0.00 | 0.18 | 0.10 | 63 | 1007.7 |
| 20260503225124 | 43 | 315 | 4.0 | 8.0 | 0.00 | 0.18 | 0.10 | 62 | 1007.7 |
| 20260503224723 | 43 | 315 | 5.0 | 9.0 | 0.00 | 0.18 | 0.10 | 65 | 1007.7 |
| 20260503224201 | 43 | 315 | 5.0 | 9.0 | 0.00 | 0.18 | 0.10 | 63 | 1007.7 |
| 20260503223717 | 43 | 338 | 6.0 | 10.0 | 0.00 | 0.18 | 0.10 | 62 | 1007.6 |
| 20260503223017 | 43 | 315 | 6.0 | 10.0 | 0.00 | 0.18 | 0.10 | 61 | 1007.5 |
| 20260503222533 | 43 | 315 | 8.0 | 13.0 | 0.00 | 0.18 | 0.10 | 63 | 1007.5 |
| 20260503222048 | 43 | 338 | 7.0 | 12.0 | 0.00 | 0.18 | 0.10 | 61 | 1007.6 |
| 20260503221608 | 43 | 315 | 7.0 | 12.0 | 0.00 | 0.18 | 0.10 | 63 | 1007.5 |
| 20260503221224 | 43 | 338 | 3.0 | 6.0 | 0.00 | 0.18 | 0.10 | 65 | 1007.6 |
| 20260503215018 | 43 | 338 | 2.0 | 7.0 | 0.00 | 0.18 | 0.10 | 64 | 1007.4 |
| 20260503214534 | 43 | 0 | 3.0 | 10.0 | 0.00 | 0.18 | 0.10 | 65 | 1007.5 |
| 20260503214115 | 43 | 338 | 3.0 | 8.0 | 0.00 | 0.18 | 0.10 | 67 | 1007.6 |
| 20260503213619 | 43 | 0 | 2.0 | 4.0 | 0.00 | 0.18 | 0.10 | 65 | 1007.6 |
| 20260503213128 | 43 | 0 | 4.0 | 9.0 | 0.00 | 0.18 | 0.10 | 64 | 1007.6 |
| 20260503212654 | 43 | 0 | 3.0 | 8.0 | 0.00 | 0.18 | 0.10 | 66 | 1007.6 |
| 20260503212212 | 43 | 0 | 3.0 | 8.0 | 0.00 | 0.18 | 0.10 | 66 | 1007.7 |
| 20260503211513 | 43 | 0 | 5.0 | 13.0 | 0.00 | 0.18 | 0.10 | 65 | 1007.7 |
| 20260503211028 | 43 | 0 | 4.0 | 9.0 | 0.00 | 0.18 | 0.10 | 63 | 1007.5 |
| 20260503210543 | 44 | 0 | 5.0 | 11.0 | 0.00 | 0.18 | 0.10 | 64 | 1007.7 |
| 20260503210116 | 44 | 338 | 5.0 | 11.0 | 0.00 | 0.18 | 0.10 | 62 | 1007.6 |
| 20260503205620 | 44 | 338 | 7.0 | 13.0 | 0.00 | 0.18 | 0.10 | 59 | 1007.6 |
| 20260503205144 | 44 | 338 | 4.0 | 8.0 | 0.00 | 0.18 | 0.10 | 60 | 1007.6 |
| 20260503204720 | 44 | 338 | 6.0 | 11.0 | 0.00 | 0.18 | 0.10 | 58 | 1007.6 |
| 20260503204024 | 44 | 338 | 8.0 | 17.0 | 0.00 | 0.18 | 0.09 | 59 | 1007.5 |
| 20260503203516 | 43 | 338 | 8.0 | 16.0 | 0.00 | 0.18 | 0.10 | 58 | 1007.5 |
| 20260503203041 | 43 | 338 | 4.0 | 10.0 | 0.00 | 0.18 | 0.10 | 60 | 1007.4 |
| 20260503202559 | 43 | 338 | 5.0 | 8.0 | 0.00 | 0.18 | 0.10 | 61 | 1007.5 |
| 20260503202142 | 43 | 338 | 7.0 | 10.0 | 0.00 | 0.18 | 0.10 | 60 | 1007.4 |
| 20260503201631 | 43 | 315 | 6.0 | 12.0 | 0.00 | 0.18 | 0.10 | 60 | 1007.4 |
| 20260503201209 | 43 | 315 | 10.0 | 14.0 | 0.00 | 0.18 | 0.10 | 60 | 1007.5 |
| 20260503200718 | 43 | 338 | 9.0 | 15.0 | 0.00 | 0.18 | 0.10 | 62 | 1007.6 |
| 20260503200013 | 43 | 338 | 10.0 | 17.0 | 0.00 | 0.18 | 0.10 | 63 | 1007.6 |
| 20260503195522 | 43 | 315 | 12.0 | 18.0 | 0.00 | 0.18 | 0.10 | 59 | 1007.6 |
| 20260503195046 | 44 | 338 | 10.0 | 17.0 | 0.00 | 0.18 | 0.10 | 64 | 1007.6 |
| 20260503194606 | 44 | 0 | 6.0 | 14.0 | 0.00 | 0.18 | 0.10 | 60 | 1007.5 |
| 20260503194122 | 44 | 338 | 7.0 | 13.0 | 0.00 | 0.18 | 0.10 | 62 | 1007.5 |
| 20260503193638 | 44 | 338 | 11.0 | 16.0 | 0.00 | 0.19 | 0.10 | 61 | 1007.5 |
| 20260503193225 | 44 | 338 | 9.0 | 14.0 | 0.00 | 0.20 | 0.10 | 60 | 1007.5 |
| 20260503192713 | 44 | 315 | 9.0 | 18.0 | 0.00 | 0.21 | 0.10 | 60 | 1007.4 |
| 20260503192031 | 44 | 338 | 6.0 | 10.0 | 0.00 | 0.23 | 0.10 | 58 | 1007.4 |
| 20260503191600 | 44 | 338 | 5.0 | 10.0 | 0.00 | 0.23 | 0.10 | 58 | 1007.6 |
| 20260503191053 | 44 | 338 | 7.0 | 12.0 | 0.00 | 0.23 | 0.10 | 55 | 1007.5 |
| 20260503190608 | 44 | 338 | 8.0 | 16.0 | 0.00 | 0.23 | 0.10 | 59 | 1007.5 |
| 20260503190133 | 44 | 0 | 5.0 | 11.0 | 0.00 | 0.23 | 0.10 | 59 | 1007.5 |
| 20260503185650 | 43 | 0 | 7.0 | 13.0 | 0.00 | 0.23 | 0.10 | 59 | 1007.6 |
| 20260503185209 | 43 | 0 | 5.0 | 11.0 | 0.00 | 0.23 | 0.10 | 60 | 1007.5 |
| 20260503184509 | 43 | 338 | 7.0 | 15.0 | 0.00 | 0.23 | 0.10 | 63 | 1007.5 |
| 20260503184025 | 44 | 338 | 10.0 | 14.0 | 0.00 | 0.23 | 0.10 | 62 | 1007.4 |
| 20260503183537 | 44 | 315 | 13.0 | 20.0 | 0.00 | 0.24 | 0.10 | 62 | 1007.5 |
| 20260503183058 | 44 | 338 | 8.0 | 15.0 | 0.00 | 0.24 | 0.10 | 61 | 1007.5 |
| 20260503182614 | 45 | 338 | 6.0 | 12.0 | 0.00 | 0.24 | 0.10 | 59 | 1007.3 |
| 20260503182136 | 45 | 338 | 7.0 | 13.0 | 0.00 | 0.24 | 0.10 | 61 | 1007.3 |
| 20260503181655 | 45 | 315 | 7.0 | 15.0 | 0.00 | 0.24 | 0.10 | 61 | 1007.4 |
| 20260503181209 | 45 | 0 | 5.0 | 11.0 | 0.00 | 0.24 | 0.10 | 58 | 1007.4 |
| 20260503180505 | 45 | 0 | 6.0 | 12.0 | 0.00 | 0.24 | 0.10 | 59 | 1007.4 |
| 20260503180029 | 45 | 338 | 5.0 | 13.0 | 0.00 | 0.24 | 0.10 | 60 | 1007.5 |
| 20260503175551 | 45 | 0 | 6.0 | 10.0 | 0.00 | 0.24 | 0.10 | 60 | 1007.5 |
| 20260503175109 | 45 | 338 | 6.0 | 11.0 | 0.00 | 0.24 | 0.10 | 60 | 1007.5 |
| 20260503174624 | 45 | 0 | 5.0 | 9.0 | 0.00 | 0.24 | 0.10 | 61 | 1007.4 |
| 20260503174208 | 45 | 0 | 6.0 | 12.0 | 0.00 | 0.24 | 0.10 | 60 | 1007.5 |
| 20260503173656 | 44 | 23 | 6.0 | 14.0 | 0.00 | 0.24 | 0.10 | 60 | 1007.5 |
| 20260503173125 | 44 | 338 | 6.0 | 11.0 | 0.00 | 0.24 | 0.10 | 64 | 1007.4 |
| 20260503172514 | 44 | 338 | 5.0 | 14.0 | 0.00 | 0.24 | 0.10 | 65 | 1007.5 |
| 20260503172028 | 44 | 338 | 8.0 | 14.0 | 0.00 | 0.24 | 0.10 | 64 | 1007.5 |
| 20260503171550 | 44 | 338 | 7.0 | 11.0 | 0.00 | 0.24 | 0.10 | 66 | 1007.5 |
| 20260503171113 | 44 | 338 | 5.0 | 11.0 | 0.00 | 0.24 | 0.10 | 64 | 1007.4 |
| 20260503170623 | 44 | 338 | 4.0 | 9.0 | 0.00 | 0.24 | 0.10 | 62 | 1007.5 |
| 20260503170146 | 44 | 338 | 5.0 | 11.0 | 0.00 | 0.24 | 0.10 | 65 | 1007.5 |